Home   Weather   Red Deer   Past weeks

Flag for Canada Past Weather in Red Deer, Alberta, Canada — Yesterday and Last 2 Weeks

Now
37 °F

Passing clouds.


Feels Like: 34 °F
Forecast: 41 / 71 °F
Wind: 5 mph from Southwest

Location: Red Deer

Current Time: Sep 26, 2016 at 7:54:40 AM

Latest Report: Sep 26, 2016 at 7:00 AM


Visibility: 15 mi

Pressure: 30.21 "Hg (27.17 "Hg at 857m altitude)

Humidity: 87%

Dew Point: 34 °F

Location of Red DeerLocation

Past Weather in Red Deer — Graph

°F

Red Deer Temperature Yesterday

Maximum temperature yesterday: 63 °F (at 4:00 PM)
Minimum temperature yesterday: 30 °F (at 7:00 AM)
Average temperature yesterday: 46 °F

High & Low Weather Summary for the Past Weeks

 TemperatureHumidityPressure
High75 °F (Sep 14, 3:00 PM)100% (Sep 13, 4:00 AM)30.45 "Hg (Sep 13, 4:00 AM)
Low28 °F (Sep 21, 7:45 AM)24% (Sep 13, 4:00 PM)29.48 "Hg (Sep 17, 9:00 PM)
Average49 °F73%30.07 "Hg
* Reported Sep 11 6:00 AM — Sep 26 6:00 AM, Red Deer, Weather by CustomWeather, © 2016

Note: Actual official high and low records may vary slightly from our data, if they occured in-between our weather recording intervals... More about our weather records

Advertising

Red Deer Weather History for the Previous 24 Hours

Scroll right to see more
 ConditionsComfort  
Time TempWeatherWind HumidityBarometerVisibility
6:00 AM
Mon, Sep 26
37 °FPassing clouds.2 mph81%30.21 "Hg15 mi
5:00 AM39 °FPassing clouds.3 mph81%30.22 "Hg15 mi
4:00 AM41 °FPassing clouds.5 mph76%30.22 "Hg15 mi
3:00 AM43 °FClear.5 mph71%30.24 "Hg15 mi
2:00 AM39 °FClear.6 mph81%30.26 "Hg15 mi
1:00 AM39 °FClear.2 mph87%30.27 "Hg15 mi
12:00 AM43 °FClear.2 mph76%30.27 "Hg15 mi
11:00 PM
Sun, Sep 25
41 °FClear.6 mph81%30.28 "Hg15 mi
10:00 PM45 °FClear.2 mph71%30.30 "Hg15 mi
9:00 PM50 °FPassing clouds.2 mph58%30.29 "Hg15 mi
8:00 PM52 °FPassing clouds.3 mph54%30.29 "Hg15 mi
7:00 PM57 °FPassing clouds.3 mph48%30.27 "Hg15 mi
6:00 PM63 °FPassing clouds.6 mph37%30.25 "Hg15 mi
5:00 PM63 °FPassing clouds.6 mph32%30.25 "Hg15 mi
4:00 PM63 °FBroken clouds.2 mph32%30.26 "Hg15 mi
3:00 PM61 °FPartly sunny.5 mph36%30.26 "Hg15 mi
2:00 PM61 °FPassing clouds.5 mph34%30.27 "Hg15 mi
1:00 PM59 °FPassing clouds.9 mph39%30.27 "Hg15 mi
12:00 PM54 °FPartly sunny.6 mph51%30.29 "Hg15 mi
11:00 AM50 °FScattered clouds.5 mph50%30.32 "Hg15 mi
10:00 AM41 °FBroken clouds.3 mph81%30.35 "Hg15 mi
9:00 AM36 °FPartly sunny.5 mph87%30.35 "Hg15 mi
8:00 AM32 °FScattered clouds.3 mph87%30.34 "Hg15 mi
7:00 AM30 °FPassing clouds.2 mph93%30.35 "Hg15 mi
Weather by CustomWeather, © 2016

See weather overviewHow to use our weather pages